Location: La Coruña
(43.3623°N, 8.4115°W)
Time: 03:29:01
(UTC+01:00)

STARLINK-1115 - Pass Details

Date: 21 January 2020
Orbit: 348 x 351 km, 53.0° (Epoch: 23 February)

Event Time Altitude Azimuth Distance (km) Brightness Sun altitude
Rises 19:45:19 0° 277° (W) 2,178 8.1 -13.6°
Reaches altitude 10° 19:47:46 10° 298° (WNW) 1,335 6.3 -14.0°
Maximum altitude 19:49:54 18° 344° (NNW) 979 4.9 -14.4°
Enters shadow 19:51:04 15° 13° (NNE) 1,100 4.9 -14.6°
